Time,TemperatureF,DewpointF,PressureIn,WindDirection,WindDirectionDegrees,WindSpeedMPH,WindSpeedGustMPH,Humidity,HourlyPrecipIn,Conditions,Clouds,dailyrainin,SolarRadiationWatts/m^2,SoftwareType,DateUTC
2013-03-20 00:01:00,12.2,1.0,30.09,WNW,284,9.0,12.0,60,0.00,,CLR,0.00,0.00,VWS V14.01,2013-03-20 05:01:00,
2013-03-20 00:07:00,11.9,0.7,30.10,WNW,286,9.0,12.0,60,0.00,,CLR,0.00,0.00,VWS V14.01,2013-03-20 05:07:00,
2013-03-20 00:12:00,11.9,0.7,30.09,WNW,287,8.0,12.0,60,0.00,,CLR,0.00,0.00,VWS V14.01,2013-03-20 05:12:00,
2013-03-20 00:17:00,11.7,0.5,30.10,West,277,7.0,12.0,60,0.00,,CLR,0.00,0.00,VWS V14.01,2013-03-20 05:17:00,
2013-03-20 00:22:00,11.6,0.4,30.10,WNW,293,8.0,12.0,60,0.00,,CLR,0.00,0.00,VWS V14.01,2013-03-20 05:22:00,
2013-03-20 00:27:00,11.4,0.2,30.10,WNW,293,7.0,12.0,60,0.00,,CLR,0.00,0.00,VWS V14.01,2013-03-20 05:27:00,
2013-03-20 00:32:00,11.2,0.0,30.10,WNW,283,9.0,10.0,60,0.00,,CLR,0.00,0.00,VWS V14.01,2013-03-20 05:32:00,
2013-03-20 00:37:00,11.1,-0.1,30.10,WNW,294,8.0,11.0,60,0.00,,CLR,0.00,0.00,VWS V14.01,2013-03-20 05:37:00,
2013-03-20 00:42:00,10.9,-0.2,30.10,West,278,9.0,11.0,60,0.00,,CLR,0.00,0.00,VWS V14.01,2013-03-20 05:42:00,
2013-03-20 00:47:00,10.7,-0.4,30.10,NW,307,8.0,11.0,60,0.00,,CLR,0.00,0.00,VWS V14.01,2013-03-20 05:47:00,
2013-03-20 00:52:00,10.4,-0.4,30.10,WNW,286,8.0,11.0,61,0.00,,CLR,0.00,0.00,VWS V14.01,2013-03-20 05:52:00,
2013-03-20 00:57:00,10.1,-0.7,30.10,WNW,289,11.0,11.0,61,0.00,,CLR,0.00,0.00,VWS V14.01,2013-03-20 05:57:00,
2013-03-20 01:02:00,9.9,-0.9,30.10,NW,306,8.0,10.0,61,0.00,,CLR,0.00,0.00,VWS V14.01,2013-03-20 06:02:00,
2013-03-20 01:07:00,9.7,-1.0,30.10,NW,304,9.0,10.0,61,0.00,,CLR,0.00,0.00,VWS V14.01,2013-03-20 06:07:00,
2013-03-20 01:12:00,9.6,-0.8,30.11,WNW,299,8.0,11.0,62,0.00,,CLR,0.00,0.00,VWS V14.01,2013-03-20 06:12:00,
2013-03-20 01:17:00,9.6,-1.1,30.11,WNW,290,6.0,11.0,61,0.00,,CLR,0.00,0.00,VWS V14.01,2013-03-20 06:17:00,
2013-03-20 01:22:00,9.5,-1.2,30.11,WSW,254,6.0,11.0,61,0.00,,CLR,0.00,0.00,VWS V14.01,2013-03-20 06:22:00,
2013-03-20 01:27:00,9.5,-1.2,30.11,WNW,291,5.0,11.0,61,0.00,,CLR,0.00,0.00,VWS V14.01,2013-03-20 06:27:00,
2013-03-20 01:32:00,9.3,-1.4,30.11,NW,317,8.0,10.0,61,0.00,,CLR,0.00,0.00,VWS V14.01,2013-03-20 06:32:00,
2013-03-20 01:37:00,9.2,-1.5,30.11,WNW,295,5.0,12.0,61,0.00,,CLR,0.00,0.00,VWS V14.01,2013-03-20 06:37:00,
2013-03-20 01:42:00,9.1,-1.6,30.11,WNW,286,8.0,12.0,61,0.00,,CLR,0.00,0.00,VWS V14.01,2013-03-20 06:42:00,
2013-03-20 01:47:00,8.9,-1.8,30.11,WNW,295,5.0,12.0,61,0.00,,CLR,0.00,0.00,VWS V14.01,2013-03-20 06:47:00,
2013-03-20 01:52:00,8.8,-1.9,30.11,WNW,302,8.0,12.0,61,0.00,,CLR,0.00,0.00,VWS V14.01,2013-03-20 06:52:00,
2013-03-20 01:57:00,8.7,-2.0,30.11,NW,307,5.0,12.0,61,0.00,,CLR,0.00,0.00,VWS V14.01,2013-03-20 06:57:00,
2013-03-20 02:02:00,8.4,-2.3,30.12,WNW,302,5.0,9.0,61,0.00,,CLR,0.00,0.00,VWS V14.01,2013-03-20 07:02:00,
2013-03-20 02:07:00,8.3,-2.4,30.12,WNW,298,3.0,9.0,61,0.00,,CLR,0.00,0.00,VWS V14.01,2013-03-20 07:07:00,
2013-03-20 02:12:00,8.2,-2.5,30.12,WNW,296,3.0,9.0,61,0.00,,CLR,0.00,0.00,VWS V14.01,2013-03-20 07:12:00,
2013-03-20 02:17:00,7.9,-2.4,30.12,WNW,288,4.0,9.0,62,0.00,,CLR,0.00,0.00,VWS V14.01,2013-03-20 07:17:00,
2013-03-20 02:22:00,7.7,-2.6,30.12,West,279,5.0,9.0,62,0.00,,CLR,0.00,0.00,VWS V14.01,2013-03-20 07:22:00,
2013-03-20 02:27:00,7.5,-2.8,30.12,NW,308,5.0,9.0,62,0.00,,CLR,0.00,0.00,VWS V14.01,2013-03-20 07:27:00,
2013-03-20 02:32:00,7.4,-2.9,30.12,WNW,292,6.0,11.0,62,0.00,,CLR,0.00,0.00,VWS V14.01,2013-03-20 07:32:00,
2013-03-20 02:37:00,7.5,-2.8,30.12,WNW,300,5.0,11.0,62,0.00,,CLR,0.00,0.00,VWS V14.01,2013-03-20 07:37:00,
2013-03-20 02:42:00,7.6,-2.7,30.12,NW,308,7.0,11.0,62,0.00,,CLR,0.00,0.00,VWS V14.01,2013-03-20 07:42:00,
2013-03-20 02:47:00,7.5,-2.8,30.11,WNW,283,9.0,11.0,62,0.00,,CLR,0.00,0.00,VWS V14.01,2013-03-20 07:47:00,
2013-03-20 02:52:00,7.3,-3.0,30.11,WNW,291,6.0,11.0,62,0.00,,CLR,0.00,0.00,VWS V14.01,2013-03-20 07:52:00,
2013-03-20 02:57:00,7.1,-3.2,30.11,WNW,296,3.0,11.0,62,0.00,,CLR,0.00,0.00,VWS V14.01,2013-03-20 07:57:00,
2013-03-20 03:02:00,7.0,-3.3,30.11,NW,309,6.0,10.0,62,0.00,,CLR,0.00,0.00,VWS V14.01,2013-03-20 08:02:00,
2013-03-20 03:07:00,6.8,-3.5,30.11,WNW,283,8.0,11.0,62,0.00,,CLR,0.00,0.00,VWS V14.01,2013-03-20 08:07:00,
2013-03-20 03:12:00,6.8,-3.5,30.11,NW,307,7.0,11.0,62,0.00,,CLR,0.00,0.00,VWS V14.01,2013-03-20 08:12:00,
2013-03-20 03:17:00,6.7,-3.2,30.11,WNW,284,6.0,11.0,63,0.00,,CLR,0.00,0.00,VWS V14.01,2013-03-20 08:17:00,
2013-03-20 03:22:00,6.4,-3.5,30.11,WNW,299,5.0,11.0,63,0.00,,CLR,0.00,0.00,VWS V14.01,2013-03-20 08:22:00,
2013-03-20 03:27:00,6.3,-3.6,30.11,WNW,297,7.0,12.0,63,0.00,,CLR,0.00,0.00,VWS V14.01,2013-03-20 08:27:00,
2013-03-20 03:32:00,6.3,-3.6,30.11,WNW,300,7.0,14.0,63,0.00,,CLR,0.00,0.00,VWS V14.01,2013-03-20 08:32:00,
2013-03-20 03:37:00,6.2,-3.7,30.11,WNW,299,9.0,14.0,63,0.00,,CLR,0.00,0.00,VWS V14.01,2013-03-20 08:37:00,
2013-03-20 03:42:00,6.2,-3.7,30.11,WNW,294,7.0,14.0,63,0.00,,CLR,0.00,0.00,VWS V14.01,2013-03-20 08:42:00,
2013-03-20 03:48:00,6.2,-3.7,30.11,NW,317,6.0,14.0,63,0.00,,CLR,0.00,0.00,VWS V14.01,2013-03-20 08:48:00,
2013-03-20 03:53:00,6.1,-3.5,30.11,NW,323,8.0,14.0,64,0.00,,CLR,0.00,0.00,VWS V14.01,2013-03-20 08:53:00,
2013-03-20 03:58:00,6.0,-3.5,30.11,West,281,5.0,14.0,64,0.00,,CLR,0.00,0.00,VWS V14.01,2013-03-20 08:58:00,
2013-03-20 04:03:00,5.9,-3.6,30.11,NW,304,7.0,13.0,64,0.00,,CLR,0.00,0.00,VWS V14.01,2013-03-20 09:03:00,
2013-03-20 04:08:00,5.8,-3.7,30.11,WNW,298,8.0,13.0,64,0.00,,CLR,0.00,0.00,VWS V14.01,2013-03-20 09:08:00,
2013-03-20 04:13:00,5.6,-3.9,30.11,NW,306,11.0,13.0,64,0.00,,CLR,0.00,0.00,VWS V14.01,2013-03-20 09:13:00,
2013-03-20 04:18:00,5.5,-3.7,30.11,WNW,286,6.0,13.0,65,0.00,,CLR,0.00,0.00,VWS V14.01,2013-03-20 09:18:00,
2013-03-20 04:23:00,5.4,-3.8,30.11,NW,305,4.0,13.0,65,0.00,,CLR,0.00,0.00,VWS V14.01,2013-03-20 09:23:00,
2013-03-20 04:28:00,5.4,-3.8,30.11,NW,311,7.0,13.0,65,0.00,,CLR,0.00,0.00,VWS V14.01,2013-03-20 09:28:00,
2013-03-20 04:33:00,5.3,-3.9,30.11,West,280,12.0,12.0,65,0.00,,CLR,0.00,0.00,VWS V14.01,2013-03-20 09:33:00,
2013-03-20 04:38:00,5.1,-3.8,30.11,NW,324,7.0,12.0,66,0.00,,CLR,0.00,0.00,VWS V14.01,2013-03-20 09:38:00,
2013-03-20 04:43:00,5.0,-3.9,30.11,WNW,298,7.0,12.0,66,0.00,,CLR,0.00,0.00,VWS V14.01,2013-03-20 09:43:00,
2013-03-20 04:48:00,4.8,-4.1,30.12,WNW,296,6.0,12.0,66,0.00,,CLR,0.00,0.00,VWS V14.01,2013-03-20 09:48:00,
2013-03-20 04:53:00,4.6,-4.2,30.12,WNW,303,7.0,12.0,66,0.00,,CLR,0.00,0.00,VWS V14.01,2013-03-20 09:53:00,
2013-03-20 04:58:00,4.5,-4.0,30.12,NW,306,5.0,12.0,67,0.00,,CLR,0.00,0.00,VWS V14.01,2013-03-20 09:58:00,
2013-03-20 05:03:00,4.4,-4.1,30.12,NW,307,6.0,10.0,67,0.00,,CLR,0.00,0.00,VWS V14.01,2013-03-20 10:03:00,
2013-03-20 05:08:00,4.4,-4.1,30.12,WNW,300,8.0,10.0,67,0.00,,CLR,0.00,0.00,VWS V14.01,2013-03-20 10:08:00,
2013-03-20 05:13:00,4.4,-4.1,30.12,WNW,285,9.0,10.0,67,0.00,,CLR,0.00,0.00,VWS V14.01,2013-03-20 10:13:00,
2013-03-20 05:18:00,4.2,-4.3,30.12,WNW,288,6.0,10.0,67,0.00,,CLR,0.00,0.00,VWS V14.01,2013-03-20 10:18:00,
2013-03-20 05:23:00,4.1,-4.1,30.12,NNW,329,4.0,10.0,68,0.00,,CLR,0.00,0.00,VWS V14.01,2013-03-20 10:23:00,
2013-03-20 05:28:00,4.1,-4.1,30.12,WNW,298,6.0,11.0,68,0.00,,CLR,0.00,0.00,VWS V14.01,2013-03-20 10:28:00,
2013-03-20 05:33:00,4.1,-1.8,30.12,West,279,3.0,9.0,76,0.00,,CLR,0.00,0.00,VWS V14.01,2013-03-20 10:33:00,
2013-03-20 05:38:00,4.0,-4.2,30.12,WNW,300,6.0,11.0,68,0.00,,CLR,0.00,0.00,VWS V14.01,2013-03-20 10:38:00,
2013-03-20 05:43:00,4.1,-4.1,30.12,WNW,283,5.0,11.0,68,0.00,,CLR,0.00,0.00,VWS V14.01,2013-03-20 10:43:00,
2013-03-20 05:48:00,4.1,-3.8,30.12,WNW,302,7.0,11.0,69,0.00,,CLR,0.00,0.00,VWS V14.01,2013-03-20 10:48:00,
2013-03-20 05:53:00,4.2,-4.0,30.12,WNW,290,5.0,11.0,68,0.00,,CLR,0.00,0.00,VWS V14.01,2013-03-20 10:53:00,
2013-03-20 05:58:00,4.1,-4.1,30.12,West,273,10.0,11.0,68,0.00,,CLR,0.00,0.00,VWS V14.01,2013-03-20 10:58:00,
2013-03-20 06:03:00,4.1,-3.8,30.12,West,279,7.0,12.0,69,0.00,,CLR,0.00,0.00,VWS V14.01,2013-03-20 11:03:00,
2013-03-20 06:08:00,4.1,-3.8,30.12,West,280,7.0,12.0,69,0.00,,CLR,0.00,0.00,VWS V14.01,2013-03-20 11:08:00,
2013-03-20 06:13:00,3.9,-4.0,30.12,NW,304,5.0,12.0,69,0.00,,CLR,0.00,0.00,VWS V14.01,2013-03-20 11:13:00,
2013-03-20 06:18:00,3.7,-4.2,30.12,WNW,297,6.0,12.0,69,0.00,,CLR,0.00,0.00,VWS V14.01,2013-03-20 11:18:00,
2013-03-20 06:23:00,3.5,-4.4,30.12,NW,306,7.0,12.0,69,0.00,,CLR,0.00,0.00,VWS V14.01,2013-03-20 11:23:00,
2013-03-20 06:28:00,3.5,-4.1,30.13,WNW,290,6.0,12.0,70,0.00,,CLR,0.00,0.00,VWS V14.01,2013-03-20 11:28:00,
2013-03-20 06:33:00,3.5,-4.1,30.13,WNW,296,2.0,9.0,70,0.00,,CLR,0.00,0.00,VWS V14.01,2013-03-20 11:33:00,
2013-03-20 06:38:00,3.5,-4.1,30.13,West,281,5.0,9.0,70,0.00,,CLR,0.00,0.00,VWS V14.01,2013-03-20 11:38:00,
2013-03-20 06:43:00,3.4,-4.2,30.13,West,281,3.0,9.0,70,0.00,,CLR,0.00,0.00,VWS V14.01,2013-03-20 11:43:00,
2013-03-20 06:48:00,3.2,-4.4,30.13,West,262,3.0,9.0,70,0.00,,CLR,0.00,0.00,VWS V14.01,2013-03-20 11:48:00,
2013-03-20 06:53:00,3.2,-4.4,30.13,West,274,4.0,9.0,70,0.00,,CLR,0.00,0.00,VWS V14.01,2013-03-20 11:53:00,
2013-03-20 06:58:00,3.2,-4.4,30.13,West,262,6.0,9.0,70,0.00,,CLR,0.00,0.00,VWS V14.01,2013-03-20 11:58:00,
2013-03-20 07:03:00,3.1,-4.5,30.13,West,274,6.0,8.0,70,0.00,,CLR,0.00,0.00,VWS V14.01,2013-03-20 12:03:00,
2013-03-20 07:08:00,3.0,-4.3,30.13,West,278,7.0,11.0,71,0.00,,CLR,0.00,0.00,VWS V14.01,2013-03-20 12:08:00,
2013-03-20 07:13:00,2.9,-4.4,30.13,West,265,5.0,11.0,71,0.00,,CLR,0.00,5.00,VWS V14.01,2013-03-20 12:13:00,
2013-03-20 07:18:00,2.9,-4.4,30.13,WNW,286,3.0,11.0,71,0.00,,CLR,0.00,7.00,VWS V14.01,2013-03-20 12:18:00,
2013-03-20 07:23:00,2.8,-4.4,30.13,West,271,2.0,11.0,71,0.00,,CLR,0.00,11.00,VWS V14.01,2013-03-20 12:23:00,
2013-03-20 07:28:00,3.0,-4.3,30.13,West,271,5.0,11.0,71,0.00,,CLR,0.00,14.00,VWS V14.01,2013-03-20 12:28:00,
2013-03-20 07:33:00,3.2,-4.1,30.13,WSW,252,5.0,7.0,71,0.00,,CLR,0.00,18.00,VWS V14.01,2013-03-20 12:33:00,
2013-03-20 07:38:00,3.2,-4.1,30.13,WNW,284,4.0,10.0,71,0.00,,CLR,0.00,23.00,VWS V14.01,2013-03-20 12:38:00,
2013-03-20 07:44:00,3.1,-4.2,30.13,WNW,283,6.0,11.0,71,0.00,,CLR,0.00,28.00,VWS V14.01,2013-03-20 12:44:00,
2013-03-20 07:49:00,3.2,-4.1,30.13,WNW,290,9.0,11.0,71,0.00,,CLR,0.00,39.00,VWS V14.01,2013-03-20 12:49:00,
2013-03-20 07:54:00,3.6,-3.7,30.13,West,279,6.0,11.0,71,0.00,,CLR,0.00,44.00,VWS V14.01,2013-03-20 12:54:00,
2013-03-20 07:59:00,3.8,-3.5,30.13,West,271,6.0,11.0,71,0.00,,CLR,0.00,47.00,VWS V14.01,2013-03-20 12:59:00,
2013-03-20 08:04:00,4.0,-3.6,30.13,WNW,284,12.0,12.0,70,0.00,,CLR,0.00,54.00,VWS V14.01,2013-03-20 13:04:00,
2013-03-20 08:09:00,4.3,-3.3,30.13,WNW,282,10.0,16.0,70,0.00,,CLR,0.00,70.00,VWS V14.01,2013-03-20 13:09:00,
2013-03-20 08:14:00,4.6,-3.0,30.13,NW,310,13.0,16.0,70,0.00,,CLR,0.00,76.00,VWS V14.01,2013-03-20 13:14:00,
2013-03-20 08:19:00,4.8,-2.8,30.13,NW,313,9.0,16.0,70,0.00,,CLR,0.00,70.00,VWS V14.01,2013-03-20 13:19:00,
2013-03-20 08:24:00,5.0,-0.3,30.13,WNW,298,8.0,16.0,78,0.00,,CLR,0.00,70.00,VWS V14.01,2013-03-20 13:24:00,
2013-03-20 08:29:00,5.1,-2.5,30.13,NW,312,8.0,16.0,70,0.00,,CLR,0.00,69.00,VWS V14.01,2013-03-20 13:29:00,
2013-03-20 08:34:00,5.2,-2.4,30.13,WNW,294,9.0,16.0,70,0.00,,CLR,0.00,54.00,VWS V14.01,2013-03-20 13:34:00,
2013-03-20 08:39:00,5.3,-2.3,30.13,NW,306,9.0,16.0,70,0.00,,CLR,0.00,63.00,VWS V14.01,2013-03-20 13:39:00,
2013-03-20 08:44:00,5.4,-2.2,30.13,NW,326,3.0,16.0,70,0.00,,CLR,0.00,70.00,VWS V14.01,2013-03-20 13:44:00,
2013-03-20 08:49:00,5.5,-2.2,30.13,West,281,9.0,17.0,70,0.00,,CLR,0.00,70.00,VWS V14.01,2013-03-20 13:49:00,
2013-03-20 08:54:00,5.6,-2.0,30.13,WNW,286,7.0,17.0,70,0.00,,CLR,0.00,77.00,VWS V14.01,2013-03-20 13:54:00,
2013-03-20 08:59:00,5.6,-2.0,30.13,WNW,297,8.0,17.0,70,0.00,,CLR,0.00,116.00,VWS V14.01,2013-03-20 13:59:00,
2013-03-20 09:04:00,5.9,-1.8,30.13,WNW,298,11.0,13.0,70,0.00,,,0.00,113.00,VWS V14.01,2013-03-20 14:04:00,
2013-03-20 09:09:00,6.0,-1.7,30.13,WNW,296,6.0,16.0,70,0.00,,,0.00,144.00,VWS V14.01,2013-03-20 14:09:00,
2013-03-20 09:14:00,6.2,-1.5,30.13,West,279,5.0,16.0,70,0.00,,,0.00,162.00,VWS V14.01,2013-03-20 14:14:00,
2013-03-20 09:19:00,6.5,-1.2,30.13,WNW,283,10.0,16.0,70,0.00,,,0.00,202.00,VWS V14.01,2013-03-20 14:19:00,
2013-03-20 09:24:00,6.7,-1.3,30.13,NW,305,6.0,16.0,69,0.00,,,0.00,199.00,VWS V14.01,2013-03-20 14:24:00,
2013-03-20 09:29:00,7.1,-0.9,30.12,WNW,290,14.0,17.0,69,0.00,,,0.00,135.00,VWS V14.01,2013-03-20 14:29:00,
2013-03-20 09:34:00,7.2,-0.8,30.12,WNW,300,9.0,14.0,69,0.00,,,0.00,327.00,VWS V14.01,2013-03-20 14:34:00,
2013-03-20 09:39:00,7.5,-0.8,30.12,WNW,283,8.0,18.0,68,0.00,,,0.00,350.00,VWS V14.01,2013-03-20 14:39:00,
2013-03-20 09:44:00,7.8,-0.6,30.13,West,268,12.0,18.0,68,0.00,,,0.00,338.00,VWS V14.01,2013-03-20 14:44:00,
2013-03-20 09:49:00,7.8,-0.6,30.13,WNW,291,13.0,19.0,68,0.00,,,0.00,425.00,VWS V14.01,2013-03-20 14:49:00,
2013-03-20 09:54:00,7.9,-0.8,30.12,WNW,289,9.0,20.0,67,0.00,,,0.00,369.00,VWS V14.01,2013-03-20 14:54:00,
2013-03-20 09:59:00,7.9,-0.4,30.12,NW,309,11.0,20.0,68,0.00,,,0.00,297.00,VWS V14.01,2013-03-20 14:59:00,
2013-03-20 10:04:00,8.1,-0.3,30.12,WNW,288,9.0,18.0,68,0.00,,CLR,0.00,283.00,VWS V14.01,2013-03-20 15:04:00,
2013-03-20 10:09:00,8.2,-0.2,30.12,NW,315,11.0,18.0,68,0.00,,CLR,0.00,403.00,VWS V14.01,2013-03-20 15:09:00,
2013-03-20 10:14:00,8.5,-0.2,30.12,West,262,8.0,18.0,67,0.00,,CLR,0.00,346.00,VWS V14.01,2013-03-20 15:14:00,
2013-03-20 10:19:00,8.5,-0.2,30.12,WNW,289,16.0,19.0,67,0.00,,CLR,0.00,411.00,VWS V14.01,2013-03-20 15:19:00,
2013-03-20 10:24:00,8.9,0.2,30.12,NW,324,11.0,19.0,67,0.00,,CLR,0.00,283.00,VWS V14.01,2013-03-20 15:24:00,
2013-03-20 10:29:00,9.2,0.5,30.12,NNW,329,10.0,19.0,67,0.00,,CLR,0.00,520.00,VWS V14.01,2013-03-20 15:29:00,
2013-03-20 10:34:00,9.5,0.4,30.11,WNW,301,15.0,19.0,66,0.00,,CLR,0.00,429.00,VWS V14.01,2013-03-20 15:34:00,
2013-03-20 10:39:00,9.5,0.4,30.11,West,276,9.0,19.0,66,0.00,,CLR,0.00,411.00,VWS V14.01,2013-03-20 15:39:00,
2013-03-20 10:44:00,9.7,0.6,30.11,WNW,291,11.0,20.0,66,0.00,,CLR,0.00,257.00,VWS V14.01,2013-03-20 15:44:00,
2013-03-20 10:49:00,10.1,1.0,30.12,NW,304,7.0,20.0,66,0.00,,CLR,0.00,443.00,VWS V14.01,2013-03-20 15:49:00,
2013-03-20 10:54:00,10.0,0.6,30.12,WNW,282,11.0,20.0,65,0.00,,CLR,0.00,503.00,VWS V14.01,2013-03-20 15:54:00,
2013-03-20 10:59:00,10.0,0.9,30.12,WNW,302,12.0,20.0,66,0.00,,CLR,0.00,230.00,VWS V14.01,2013-03-20 15:59:00,
2013-03-20 11:04:00,10.0,0.9,30.12,NW,306,12.0,17.0,66,0.00,,CLR,0.00,404.00,VWS V14.01,2013-03-20 16:04:00,
2013-03-20 11:09:00,10.3,1.2,30.12,NW,315,11.0,17.0,66,0.00,,CLR,0.00,439.00,VWS V14.01,2013-03-20 16:09:00,
2013-03-20 11:14:00,10.6,1.5,30.12,WNW,284,12.0,17.0,66,0.00,,CLR,0.00,418.00,VWS V14.01,2013-03-20 16:14:00,
2013-03-20 11:19:00,10.8,1.4,30.12,West,279,10.0,17.0,65,0.00,,CLR,0.00,311.00,VWS V14.01,2013-03-20 16:19:00,
2013-03-20 11:24:00,10.8,1.4,30.11,WNW,297,14.0,20.0,65,0.00,,CLR,0.00,436.00,VWS V14.01,2013-03-20 16:24:00,
2013-03-20 11:29:00,11.0,1.5,30.11,WNW,294,15.0,20.0,65,0.00,,CLR,0.00,345.00,VWS V14.01,2013-03-20 16:29:00,
2013-03-20 11:34:00,11.1,1.6,30.11,WNW,296,8.0,20.0,65,0.00,,CLR,0.00,446.00,VWS V14.01,2013-03-20 16:34:00,
2013-03-20 11:39:00,11.3,1.8,30.11,West,275,16.0,20.0,65,0.00,,CLR,0.00,461.00,VWS V14.01,2013-03-20 16:39:00,
2013-03-20 11:44:00,11.2,1.7,30.11,WNW,289,11.0,20.0,65,0.00,,CLR,0.00,673.00,VWS V14.01,2013-03-20 16:44:00,
2013-03-20 11:49:00,11.5,2.0,30.11,WNW,295,11.0,20.0,65,0.00,,CLR,0.00,603.00,VWS V14.01,2013-03-20 16:49:00,
2013-03-20 11:54:00,11.4,1.6,30.11,West,267,12.0,20.0,64,0.00,,CLR,0.00,531.00,VWS V14.01,2013-03-20 16:54:00,
2013-03-20 11:59:00,11.8,2.0,30.11,West,269,7.0,20.0,64,0.00,,CLR,0.00,329.00,VWS V14.01,2013-03-20 16:59:00,
2013-03-20 12:04:00,11.8,2.0,30.11,WNW,290,11.0,17.0,64,0.00,,CLR,0.00,552.00,VWS V14.01,2013-03-20 17:04:00,
2013-03-20 12:09:00,12.0,2.2,30.11,WNW,291,13.0,22.0,64,0.00,,CLR,0.00,589.00,VWS V14.01,2013-03-20 17:09:00,
2013-03-20 12:14:00,12.5,2.3,30.11,NW,315,10.0,22.0,63,0.00,,CLR,0.00,545.00,VWS V14.01,2013-03-20 17:14:00,
2013-03-20 12:19:00,12.6,2.4,30.11,WNW,294,15.0,22.0,63,0.00,,CLR,0.00,578.00,VWS V14.01,2013-03-20 17:19:00,
2013-03-20 12:24:00,13.1,2.9,30.11,WNW,290,12.0,22.0,63,0.00,,CLR,0.00,751.00,VWS V14.01,2013-03-20 17:24:00,
2013-03-20 12:29:00,13.3,2.7,30.11,NNW,335,6.0,22.0,62,0.00,,CLR,0.00,759.00,VWS V14.01,2013-03-20 17:29:00,
2013-03-20 12:34:00,13.7,2.8,30.11,West,259,7.0,18.0,61,0.00,,CLR,0.00,698.00,VWS V14.01,2013-03-20 17:34:00,
2013-03-20 12:39:00,13.8,2.8,30.11,WNW,300,7.0,18.0,61,0.00,,CLR,0.00,796.00,VWS V14.01,2013-03-20 17:39:00,
2013-03-20 12:45:00,13.9,2.6,30.11,WNW,302,8.0,18.0,60,0.00,,CLR,0.00,803.00,VWS V14.01,2013-03-20 17:45:00,
2013-03-20 12:50:00,13.8,2.5,30.11,NW,313,10.0,19.0,60,0.00,,CLR,0.00,851.00,VWS V14.01,2013-03-20 17:50:00,
2013-03-20 12:55:00,14.0,3.0,30.11,WNW,288,16.0,19.0,61,0.00,,CLR,0.00,819.00,VWS V14.01,2013-03-20 17:55:00,
2013-03-20 13:00:00,13.9,2.6,30.11,NW,312,14.0,19.0,60,0.00,,CLR,0.00,833.00,VWS V14.01,2013-03-20 18:00:00,
2013-03-20 13:05:00,14.4,3.1,30.11,WNW,296,13.0,17.0,60,0.00,,CLR,0.00,838.00,VWS V14.01,2013-03-20 18:05:00,
2013-03-20 13:10:00,14.8,3.1,30.10,NNW,329,8.0,17.0,59,0.00,,CLR,0.00,886.00,VWS V14.01,2013-03-20 18:10:00,
2013-03-20 13:15:00,14.6,2.9,30.11,West,279,8.0,17.0,59,0.00,,CLR,0.00,900.00,VWS V14.01,2013-03-20 18:15:00,
2013-03-20 13:20:00,14.8,3.1,30.10,WNW,284,15.0,17.0,59,0.00,,CLR,0.00,246.00,VWS V14.01,2013-03-20 18:20:00,
2013-03-20 13:25:00,14.5,2.8,30.10,NW,305,8.0,18.0,59,0.00,,CLR,0.00,292.00,VWS V14.01,2013-03-20 18:25:00,
2013-03-20 13:30:00,14.9,3.2,30.10,West,279,12.0,18.0,59,0.00,,CLR,0.00,888.00,VWS V14.01,2013-03-20 18:30:00,
2013-03-20 13:35:00,14.9,3.2,30.10,West,268,10.0,20.0,59,0.00,,CLR,0.00,926.00,VWS V14.01,2013-03-20 18:35:00,
2013-03-20 13:40:00,15.3,3.5,30.10,NNW,338,7.0,20.0,59,0.00,,CLR,0.00,900.00,VWS V14.01,2013-03-20 18:40:00,
2013-03-20 13:44:00,16.1,4.3,30.10,NNW,334,8.0,20.0,59,0.00,,CLR,0.00,944.00,VWS V14.01,2013-03-20 18:44:00,
2013-03-20 13:49:00,16.2,3.7,30.10,West,279,14.0,20.0,57,0.00,,CLR,0.00,541.00,VWS V14.01,2013-03-20 18:49:00,
2013-03-20 13:54:00,16.5,4.3,30.10,West,280,14.0,20.0,58,0.00,,CLR,0.00,1023.00,VWS V14.01,2013-03-20 18:54:00,
2013-03-20 13:59:00,15.9,3.4,30.10,NNW,339,7.0,23.0,57,0.00,,CLR,0.00,485.00,VWS V14.01,2013-03-20 18:59:00,
2013-03-20 14:05:00,15.9,3.8,30.09,NW,313,12.0,23.0,58,0.00,,CLR,0.00,364.00,VWS V14.01,2013-03-20 19:05:00,
2013-03-20 14:10:00,16.2,4.0,30.09,WNW,300,10.0,23.0,58,0.00,,CLR,0.00,415.00,VWS V14.01,2013-03-20 19:10:00,
2013-03-20 14:15:00,16.9,4.3,30.09,WNW,301,12.0,23.0,57,0.00,,CLR,0.00,550.00,VWS V14.01,2013-03-20 19:15:00,
2013-03-20 14:20:00,16.7,4.5,30.09,WSW,258,11.0,23.0,58,0.00,,SCT039,0.00,480.00,VWS V14.01,2013-03-20 19:20:00,
2013-03-20 14:25:00,16.3,4.1,30.09,West,274,9.0,23.0,58,0.00,,SCT039,0.00,427.00,VWS V14.01,2013-03-20 19:25:00,
2013-03-20 14:30:00,16.2,4.4,30.09,WNW,282,10.0,11.0,59,0.00,,SCT039,0.00,466.00,VWS V14.01,2013-03-20 19:30:00,
2013-03-20 14:35:00,16.9,4.7,30.09,NW,325,13.0,14.0,58,0.00,,SCT039,0.00,573.00,VWS V14.01,2013-03-20 19:35:00,
2013-03-20 14:40:00,16.7,4.5,30.09,WNW,287,10.0,16.0,58,0.00,,SCT039,0.00,515.00,VWS V14.01,2013-03-20 19:40:00,
2013-03-20 14:45:00,16.6,4.8,30.09,NW,314,8.0,16.0,59,0.00,,SCT039,0.00,534.00,VWS V14.01,2013-03-20 19:45:00,
2013-03-20 14:50:00,16.7,5.2,30.09,NW,317,12.0,20.0,60,0.00,,SCT039,0.00,406.00,VWS V14.01,2013-03-20 19:50:00,
2013-03-20 14:55:00,16.7,4.5,30.09,NW,311,12.0,20.0,58,0.00,,SCT039,0.00,406.00,VWS V14.01,2013-03-20 19:55:00,
2013-03-20 15:00:00,16.9,5.1,30.09,NW,315,6.0,10.0,59,0.00,,SCT039,0.00,522.00,VWS V14.01,2013-03-20 20:00:00,
2013-03-20 15:05:00,17.9,6.0,30.09,NW,306,13.0,13.0,59,0.00,,OVC041,0.00,884.00,VWS V14.01,2013-03-20 20:05:00,
2013-03-20 15:10:00,17.6,5.0,30.09,WNW,297,12.0,19.0,57,0.00,,OVC041,0.00,378.00,VWS V14.01,2013-03-20 20:10:00,
2013-03-20 15:15:00,17.0,4.4,30.09,WNW,302,9.0,21.0,57,0.00,,OVC041,0.00,410.00,VWS V14.01,2013-03-20 20:15:00,
2013-03-20 15:20:00,16.9,4.7,30.09,NNW,333,8.0,21.0,58,0.00,,OVC041,0.00,436.00,VWS V14.01,2013-03-20 20:20:00,
2013-03-20 15:25:00,17.1,4.9,30.09,WNW,292,13.0,21.0,58,0.00,,OVC041,0.00,410.00,VWS V14.01,2013-03-20 20:25:00,
2013-03-20 15:30:00,17.1,5.2,30.09,NW,309,9.0,9.0,59,0.00,,OVC041,0.00,480.00,VWS V14.01,2013-03-20 20:30:00,
2013-03-20 15:35:00,17.9,6.0,30.09,NNE,15,2.0,12.0,59,0.00,,OVC041,0.00,404.00,VWS V14.01,2013-03-20 20:35:00,
2013-03-20 15:40:00,18.4,6.1,30.09,WSW,252,9.0,12.0,58,0.00,,OVC041,0.00,376.00,VWS V14.01,2013-03-20 20:40:00,
2013-03-20 15:45:00,17.9,4.9,30.09,NNW,327,10.0,15.0,56,0.00,,OVC041,0.00,367.00,VWS V14.01,2013-03-20 20:45:00,
2013-03-20 15:50:00,18.0,5.3,30.09,WNW,294,8.0,15.0,57,0.00,,OVC041,0.00,424.00,VWS V14.01,2013-03-20 20:50:00,
2013-03-20 15:55:00,17.8,4.8,30.09,West,273,8.0,19.0,56,0.00,,OVC041,0.00,323.00,VWS V14.01,2013-03-20 20:55:00,
2013-03-20 16:00:00,17.9,5.2,30.09,WNW,300,6.0,6.0,57,0.00,,BKN041,0.00,318.00,VWS V14.01,2013-03-20 21:00:00,
2013-03-20 16:05:00,17.9,4.9,30.09,WNW,302,6.0,12.0,56,0.00,,BKN041,0.00,246.00,VWS V14.01,2013-03-20 21:05:00,
2013-03-20 16:10:00,18.3,5.6,30.09,NW,311,6.0,12.0,57,0.00,,BKN041,0.00,531.00,VWS V14.01,2013-03-20 21:10:00,
2013-03-20 16:15:00,18.7,5.6,30.09,NNW,338,6.0,12.0,56,0.00,,BKN041,0.00,297.00,VWS V14.01,2013-03-20 21:15:00,
2013-03-20 16:20:00,18.7,5.6,30.09,West,281,7.0,12.0,56,0.00,,BKN041,0.00,272.00,VWS V14.01,2013-03-20 21:20:00,
2013-03-20 16:25:00,18.4,5.3,30.09,West,268,9.0,12.0,56,0.00,,BKN041,0.00,413.00,VWS V14.01,2013-03-20 21:25:00,
2013-03-20 16:30:00,19.1,6.0,30.09,NW,317,12.0,13.0,56,0.00,,BKN041,0.00,621.00,VWS V14.01,2013-03-20 21:30:00,
2013-03-20 16:35:00,19.3,5.8,30.09,NW,316,8.0,13.0,55,0.00,,BKN041,0.00,183.00,VWS V14.01,2013-03-20 21:35:00,
2013-03-20 16:40:00,18.6,4.7,30.09,NNW,330,5.0,15.0,54,0.00,,BKN041,0.00,279.00,VWS V14.01,2013-03-20 21:40:00,
2013-03-20 16:45:00,19.1,5.6,30.09,NNW,338,5.0,15.0,55,0.00,,BKN041,0.00,422.00,VWS V14.01,2013-03-20 21:45:00,
2013-03-20 16:50:00,19.3,5.8,30.09,NW,317,10.0,15.0,55,0.00,,BKN041,0.00,299.00,VWS V14.01,2013-03-20 21:50:00,
2013-03-20 16:55:00,19.3,6.6,30.09,WNW,291,9.0,16.0,57,0.00,,BKN041,0.00,461.00,VWS V14.01,2013-03-20 21:55:00,
2013-03-20 17:00:00,19.4,6.7,30.10,WNW,290,8.0,9.0,57,0.00,,OVC045,0.00,439.00,VWS V14.01,2013-03-20 22:00:00,
2013-03-20 17:05:00,19.8,6.7,30.10,WNW,288,10.0,12.0,56,0.00,,OVC045,0.00,432.00,VWS V14.01,2013-03-20 22:05:00,
2013-03-20 17:10:00,19.8,6.3,30.10,NNW,332,11.0,12.0,55,0.00,,OVC045,0.00,512.00,VWS V14.01,2013-03-20 22:10:00,
2013-03-20 17:15:00,20.0,6.4,30.10,WNW,294,6.0,14.0,55,0.00,,OVC045,0.00,450.00,VWS V14.01,2013-03-20 22:15:00,
2013-03-20 17:20:00,20.1,6.9,30.10,WNW,287,12.0,15.0,56,0.00,,OVC045,0.00,411.00,VWS V14.01,2013-03-20 22:20:00,
2013-03-20 17:25:00,19.8,6.7,30.10,NW,311,12.0,15.0,56,0.00,,OVC045,0.00,394.00,VWS V14.01,2013-03-20 22:25:00,
2013-03-20 17:30:00,19.9,6.8,30.10,NW,313,2.0,6.0,56,0.00,,OVC045,0.00,404.00,VWS V14.01,2013-03-20 22:30:00,
2013-03-20 17:35:00,20.3,6.7,30.10,NW,312,4.0,12.0,55,0.00,,OVC045,0.00,315.00,VWS V14.01,2013-03-20 22:35:00,
2013-03-20 17:40:00,20.1,6.5,30.10,NNW,329,5.0,12.0,55,0.00,,OVC045,0.00,183.00,VWS V14.01,2013-03-20 22:40:00,
2013-03-20 17:45:00,19.9,6.3,30.10,WNW,298,6.0,12.0,55,0.00,,OVC045,0.00,190.00,VWS V14.01,2013-03-20 22:45:00,
2013-03-20 17:50:00,20.1,6.1,30.10,NW,318,6.0,12.0,54,0.00,,OVC045,0.00,272.00,VWS V14.01,2013-03-20 22:50:00,
2013-03-20 17:55:00,19.8,5.8,30.10,NW,312,3.0,12.0,54,0.00,,OVC045,0.00,169.00,VWS V14.01,2013-03-20 22:55:00,
2013-03-20 18:00:00,19.8,6.3,30.10,NNW,333,2.0,3.0,55,0.00,,OVC047,0.00,216.00,VWS V14.01,2013-03-20 23:00:00,
2013-03-20 18:05:00,19.9,6.8,30.11,NW,314,4.0,10.0,56,0.00,,OVC047,0.00,197.00,VWS V14.01,2013-03-20 23:05:00,
2013-03-20 18:10:00,20.1,6.5,30.11,NW,319,7.0,10.0,55,0.00,,OVC047,0.00,190.00,VWS V14.01,2013-03-20 23:10:00,
2013-03-20 18:15:00,20.0,6.4,30.11,NW,311,9.0,11.0,55,0.00,,OVC047,0.00,167.00,VWS V14.01,2013-03-20 23:15:00,
2013-03-20 18:20:00,19.8,6.3,30.11,WNW,300,8.0,12.0,55,0.00,,OVC047,0.00,153.00,VWS V14.01,2013-03-20 23:20:00,
2013-03-20 18:25:00,19.8,6.7,30.11,NNW,338,4.0,12.0,56,0.00,,OVC047,0.00,142.00,VWS V14.01,2013-03-20 23:25:00,
2013-03-20 18:30:00,19.8,6.3,30.11,WNW,301,5.0,10.0,55,0.00,,OVC047,0.00,114.00,VWS V14.01,2013-03-20 23:30:00,
2013-03-20 18:35:00,19.5,6.4,30.12,NW,316,2.0,10.0,56,0.00,,OVC047,0.00,44.00,VWS V14.01,2013-03-20 23:35:00,
2013-03-20 18:40:00,19.3,6.2,30.11,NNW,339,1.0,10.0,56,0.00,,OVC047,0.00,47.00,VWS V14.01,2013-03-20 23:40:00,
2013-03-20 18:45:00,19.1,6.4,30.11,WNW,300,1.0,10.0,57,0.00,,OVC047,0.00,70.00,VWS V14.01,2013-03-20 23:45:00,
2013-03-20 18:50:00,18.9,6.2,30.11,NW,319,3.0,10.0,57,0.00,,OVC047,0.00,58.00,VWS V14.01,2013-03-20 23:50:00,
2013-03-20 18:55:00,18.9,6.6,30.11,NW,314,3.0,10.0,58,0.00,,OVC047,0.00,46.00,VWS V14.01,2013-03-20 23:55:00,
2013-03-20 19:00:00,18.8,6.1,30.11,NW,309,2.0,3.0,57,0.00,,FEW039,0.00,23.00,VWS V14.01,2013-03-21 00:00:00,
2013-03-20 19:05:00,18.6,6.3,30.11,NW,309,2.0,3.0,58,0.00,,FEW039,0.00,12.00,VWS V14.01,2013-03-21 00:05:00,
2013-03-20 19:10:00,18.3,6.0,30.11,NW,309,0.0,3.0,58,0.00,,FEW039,0.00,9.00,VWS V14.01,2013-03-21 00:10:00,
2013-03-20 19:15:00,17.9,5.6,30.11,NW,309,3.0,3.0,58,0.00,,FEW039,0.00,5.00,VWS V14.01,2013-03-21 00:15:00,
2013-03-20 19:20:00,17.7,5.4,30.11,NW,309,0.0,3.0,58,0.00,,FEW039,0.00,0.00,VWS V14.01,2013-03-21 00:20:00,
2013-03-20 19:25:00,17.4,5.5,30.11,NW,309,1.0,3.0,59,0.00,,FEW039,0.00,0.00,VWS V14.01,2013-03-21 00:25:00,
2013-03-20 19:30:00,17.1,5.6,30.11,NW,309,1.0,2.0,60,0.00,,FEW039,0.00,0.00,VWS V14.01,2013-03-21 00:30:00,
2013-03-20 19:35:00,16.9,5.4,30.11,NW,309,1.0,2.0,60,0.00,,FEW039,0.00,0.00,VWS V14.01,2013-03-21 00:35:00,
2013-03-20 19:40:00,16.7,5.6,30.11,NW,309,3.0,3.0,61,0.00,,FEW039,0.00,0.00,VWS V14.01,2013-03-21 00:40:00,
2013-03-20 19:45:00,16.4,5.3,30.11,NW,309,0.0,3.0,61,0.00,,FEW039,0.00,0.00,VWS V14.01,2013-03-21 00:45:00,
2013-03-20 19:50:00,16.2,5.5,30.11,NW,309,0.0,3.0,62,0.00,,FEW039,0.00,0.00,VWS V14.01,2013-03-21 00:50:00,
2013-03-20 19:55:00,16.0,5.3,30.11,NW,309,1.0,3.0,62,0.00,,FEW039,0.00,0.00,VWS V14.01,2013-03-21 00:55:00,
2013-03-20 20:00:00,15.7,5.0,30.11,NW,309,1.0,2.0,62,0.00,,CLR,0.00,0.00,VWS V14.01,2013-03-21 01:00:00,
2013-03-20 20:06:00,15.5,4.8,30.10,NW,309,2.0,3.0,62,0.00,,CLR,0.00,0.00,VWS V14.01,2013-03-21 01:06:00,
2013-03-20 20:11:00,15.3,5.0,30.11,NW,309,1.0,3.0,63,0.00,,CLR,0.00,0.00,VWS V14.01,2013-03-21 01:11:00,
2013-03-20 20:16:00,15.2,4.9,30.11,NW,309,0.0,3.0,63,0.00,,CLR,0.00,0.00,VWS V14.01,2013-03-21 01:16:00,
2013-03-20 20:21:00,15.0,4.7,30.11,NW,309,0.0,3.0,63,0.00,,CLR,0.00,0.00,VWS V14.01,2013-03-21 01:21:00,
2013-03-20 20:26:00,14.8,4.5,30.11,NW,309,0.0,3.0,63,0.00,,CLR,0.00,0.00,VWS V14.01,2013-03-21 01:26:00,
2013-03-20 20:31:00,14.5,4.6,30.11,NW,309,0.0,1.0,64,0.00,,CLR,0.00,0.00,VWS V14.01,2013-03-21 01:31:00,
2013-03-20 20:36:00,14.3,4.4,30.11,NW,309,0.0,2.0,64,0.00,,CLR,0.00,0.00,VWS V14.01,2013-03-21 01:36:00,
2013-03-20 20:41:00,13.9,4.0,30.11,NW,309,0.0,2.0,64,0.00,,CLR,0.00,0.00,VWS V14.01,2013-03-21 01:41:00,
2013-03-20 20:46:00,13.3,3.8,30.11,NW,309,1.0,2.0,65,0.00,,CLR,0.00,0.00,VWS V14.01,2013-03-21 01:46:00,
2013-03-20 20:51:00,12.9,3.7,30.11,NW,309,2.0,2.0,66,0.00,,CLR,0.00,0.00,VWS V14.01,2013-03-21 01:51:00,
2013-03-20 20:56:00,12.7,3.8,30.11,NW,309,1.0,2.0,67,0.00,,CLR,0.00,0.00,VWS V14.01,2013-03-21 01:56:00,
2013-03-20 21:01:00,12.5,4.0,30.12,NW,309,0.0,1.0,68,0.00,,CLR,0.00,0.00,VWS V14.01,2013-03-21 02:01:00,
2013-03-20 21:06:00,12.4,3.9,30.12,NW,309,1.0,1.0,68,0.00,,CLR,0.00,0.00,VWS V14.01,2013-03-21 02:06:00,
2013-03-20 21:12:00,12.3,4.1,30.11,NW,309,0.0,1.0,69,0.00,,CLR,0.00,0.00,VWS V14.01,2013-03-21 02:12:00,
2013-03-20 21:16:00,12.2,4.3,30.11,NW,309,0.0,1.0,70,0.00,,CLR,0.00,0.00,VWS V14.01,2013-03-21 02:16:00,
2013-03-20 21:21:00,12.2,4.3,30.11,NW,309,0.0,1.0,70,0.00,,CLR,0.00,0.00,VWS V14.01,2013-03-21 02:21:00,
2013-03-20 21:26:00,12.4,4.8,30.11,NW,309,0.0,1.0,71,0.00,,CLR,0.00,0.00,VWS V14.01,2013-03-21 02:26:00,
2013-03-20 21:31:00,12.5,4.9,30.11,NW,309,0.0,0.0,71,0.00,,CLR,0.00,0.00,VWS V14.01,2013-03-21 02:31:00,
2013-03-20 21:36:00,12.5,4.9,30.11,NW,309,0.0,1.0,71,0.00,,CLR,0.00,0.00,VWS V14.01,2013-03-21 02:36:00,
2013-03-20 21:42:00,12.3,4.7,30.11,NW,309,0.0,1.0,71,0.00,,CLR,0.00,0.00,VWS V14.01,2013-03-21 02:42:00,
2013-03-20 21:47:00,11.8,3.9,30.12,NW,309,0.0,1.0,70,0.00,,CLR,0.00,0.00,VWS V14.01,2013-03-21 02:47:00,
2013-03-20 21:52:00,11.4,3.8,30.12,NW,309,0.0,1.0,71,0.00,,CLR,0.00,0.00,VWS V14.01,2013-03-21 02:52:00,
2013-03-20 21:57:00,11.2,4.0,30.12,NW,309,0.0,1.0,72,0.00,,CLR,0.00,0.00,VWS V14.01,2013-03-21 02:57:00,
2013-03-20 22:02:00,11.0,4.3,30.12,NW,309,0.0,0.0,74,0.00,,CLR,0.00,0.00,VWS V14.01,2013-03-21 03:02:00,
2013-03-20 22:07:00,11.2,5.1,30.12,NW,309,0.0,1.0,76,0.00,,CLR,0.00,0.00,VWS V14.01,2013-03-21 03:07:00,
2013-03-20 22:12:00,11.3,5.2,30.12,NW,309,0.0,1.0,76,0.00,,CLR,0.00,0.00,VWS V14.01,2013-03-21 03:12:00,
2013-03-20 22:17:00,11.2,4.8,30.12,NW,309,0.0,1.0,75,0.00,,CLR,0.00,0.00,VWS V14.01,2013-03-21 03:17:00,
2013-03-20 22:22:00,11.2,5.1,30.13,NW,309,0.0,1.0,76,0.00,,CLR,0.00,0.00,VWS V14.01,2013-03-21 03:22:00,
2013-03-20 22:27:00,11.3,5.5,30.13,NW,309,0.0,1.0,77,0.00,,CLR,0.00,0.00,VWS V14.01,2013-03-21 03:27:00,
2013-03-20 22:32:00,11.4,5.6,30.13,NW,309,0.0,0.0,77,0.00,,CLR,0.00,0.00,VWS V14.01,2013-03-21 03:32:00,
2013-03-20 22:37:00,11.4,5.6,30.13,NW,309,0.0,0.0,77,0.00,,CLR,0.00,0.00,VWS V14.01,2013-03-21 03:37:00,
2013-03-20 22:42:00,11.3,5.5,30.13,NW,309,0.0,0.0,77,0.00,,CLR,0.00,0.00,VWS V14.01,2013-03-21 03:42:00,
2013-03-20 22:47:00,11.3,5.8,30.13,NW,309,0.0,0.0,78,0.00,,CLR,0.00,0.00,VWS V14.01,2013-03-21 03:47:00,
2013-03-20 22:52:00,10.9,4.8,30.13,NW,309,0.0,0.0,76,0.00,,CLR,0.00,0.00,VWS V14.01,2013-03-21 03:52:00,
2013-03-20 22:57:00,10.4,4.6,30.13,NW,309,0.0,1.0,77,0.00,,CLR,0.00,0.00,VWS V14.01,2013-03-21 03:57:00,
2013-03-20 23:00:00,10.2,4.4,30.13,NW,309,0.0,0.0,77,0.00,,CLR,0.00,0.00,VWS V14.01,2013-03-21 04:00:00,
2013-03-20 23:05:00,10.1,4.9,30.13,NW,309,0.0,0.0,79,0.00,,CLR,0.00,0.00,VWS V14.01,2013-03-21 04:05:00,
2013-03-20 23:10:00,9.7,4.2,30.13,NW,309,0.0,0.0,78,0.00,,CLR,0.00,0.00,VWS V14.01,2013-03-21 04:10:00,
2013-03-20 23:15:00,9.8,5.2,30.13,NW,309,0.0,0.0,81,0.00,,CLR,0.00,0.00,VWS V14.01,2013-03-21 04:15:00,
2013-03-20 23:21:00,9.6,4.7,30.13,NW,309,0.0,1.0,80,0.00,,CLR,0.00,0.00,VWS V14.01,2013-03-21 04:21:00,
2013-03-20 23:26:00,9.5,4.9,30.13,NW,309,0.0,1.0,81,0.00,,CLR,0.00,0.00,VWS V14.01,2013-03-21 04:26:00,
2013-03-20 23:31:00,9.4,4.8,30.13,NW,309,0.0,0.0,81,0.00,,CLR,0.00,0.00,VWS V14.01,2013-03-21 04:31:00,
2013-03-20 23:36:00,9.4,5.0,30.13,NW,309,0.0,0.0,82,0.00,,CLR,0.00,0.00,VWS V14.01,2013-03-21 04:36:00,
2013-03-20 23:41:00,9.3,4.9,30.13,NW,309,0.0,0.0,82,0.00,,CLR,0.00,0.00,VWS V14.01,2013-03-21 04:41:00,
2013-03-20 23:46:00,9.2,4.8,30.12,NW,309,0.0,0.0,82,0.00,,CLR,0.00,0.00,VWS V14.01,2013-03-21 04:46:00,
2013-03-20 23:51:00,9.1,4.7,30.13,NW,309,0.0,0.0,82,0.00,,CLR,0.00,0.00,VWS V14.01,2013-03-21 04:51:00,
2013-03-20 23:56:00,8.7,4.3,30.13,NW,309,0.0,1.0,82,0.00,,CLR,0.00,0.00,VWS V14.01,2013-03-21 04:56:00,